ELY5167 LLBG-LYTV

Flight info

Callsign ELY5167
Flight time N/A
Altitude 34000
Route SUVAS N128 TEZAK/N0462F380 L324 SAFTA DCT MAROS DCT EVENO UM601 EXELA UN127 RIKSO DCT FSK UL608 DISOR DCT PEP DCT DOBAR DCT RODON L187 LASTI
Aircraft B738/M-SDE2E3FGHIRWXY/LB1

Departure

Time N/A
Airport Ben Gurion International Airport (LLBG)

Arrival

Time 2026-05-07 07:04
Airport Tivat Airport (LYTV)
Time Latitude Longitude Altitude Speed Heading
2026-05-07 06:55 41.97254 18.92751 7782 ft 286 kts 343°
2026-05-07 06:55 41.99187 18.92101 7430 ft 286 kts 343°
2026-05-07 06:55 42.01121 18.91454 7075 ft 288 kts 343°
2026-05-07 06:55 42.03064 18.90801 6715 ft 288 kts 343°
2026-05-07 06:56 42.04997 18.90149 6362 ft 286 kts 343°
2026-05-07 06:56 42.06923 18.89499 6010 ft 285 kts 344°
2026-05-07 06:56 42.08787 18.88652 5658 ft 282 kts 330°
2026-05-07 06:56 42.10405 18.87204 5355 ft 278 kts 320°
2026-05-07 06:57 42.11925 18.85599 5071 ft 278 kts 319°
2026-05-07 06:57 42.13431 18.83969 4774 ft 278 kts 319°
2026-05-07 06:57 42.14933 18.82337 4517 ft 278 kts 319°
2026-05-07 06:57 42.16433 18.80702 4270 ft 277 kts 319°
2026-05-07 06:58 42.17925 18.79062 4038 ft 277 kts 319°
2026-05-07 06:58 42.19408 18.77427 3975 ft 274 kts 319°
2026-05-07 06:58 42.20892 18.75791 3963 ft 276 kts 319°
2026-05-07 06:58 42.22379 18.74154 3963 ft 277 kts 319°
2026-05-07 06:59 42.23867 18.72514 3961 ft 276 kts 319°
2026-05-07 06:59 42.25348 18.70872 3960 ft 276 kts 319°
2026-05-07 06:59 42.26838 18.69218 3961 ft 276 kts 319°
2026-05-07 06:59 42.28324 18.67571 3961 ft 276 kts 319°
2026-05-07 07:00 42.29807 18.65920 3962 ft 276 kts 319°
2026-05-07 07:00 42.31292 18.64271 3961 ft 277 kts 320°
2026-05-07 07:00 42.32937 18.62943 3959 ft 277 kts 337°
2026-05-07 07:00 42.34757 18.62058 3959 ft 278 kts 341°
2026-05-07 07:01 42.36600 18.61269 3960 ft 278 kts 343°
2026-05-07 07:01 42.38449 18.60511 3873 ft 278 kts 343°
2026-05-07 07:01 42.40287 18.59762 3513 ft 273 kts 343°
2026-05-07 07:01 42.42084 18.59016 3145 ft 269 kts 345°
2026-05-07 07:02 42.43862 18.59083 2778 ft 254 kts 40°
2026-05-07 07:02 42.44713 18.60975 2617 ft 231 kts 83°
2026-05-07 07:02 42.44925 18.63092 2295 ft 224 kts 85°
2026-05-07 07:02 42.45075 18.65144 1744 ft 219 kts 91°
2026-05-07 07:03 42.44779 18.67144 988 ft 218 kts 122°
2026-05-07 07:03 42.43745 18.68468 731 ft 197 kts 145°
2026-05-07 07:03 42.42729 18.69569 504 ft 177 kts 133°
2026-05-07 07:03 42.41874 18.70675 241 ft 165 kts 138°
2026-05-07 07:04 42.41041 18.71648 43 ft 149 kts 136°
2026-05-07 07:04 42.40357 18.72475 26 ft 105 kts 139°
2026-05-07 07:04 42.39947 18.72947 26 ft 51 kts 138°
2026-05-07 07:04 42.39798 18.73118 26 ft 16 kts 139°
2026-05-07 07:05 42.39731 18.73194 26 ft 8 kts 141°
2026-05-07 07:05 42.39705 18.73225 26 ft 1 kts 139°
2026-05-07 07:05 42.39709 18.73220 26 ft 2 kts 139°
2026-05-07 07:05 42.39656 18.73261 26 ft 14 kts 171°
2026-05-07 07:06 42.39643 18.73300 26 ft 8 kts 330°
2026-05-07 07:06 42.39702 18.73227 26 ft 18 kts 317°
2026-05-07 07:06 42.39822 18.73087 26 ft 24 kts 319°
2026-05-07 07:06 42.39912 18.72981 26 ft 16 kts 319°
2026-05-07 07:07 42.40008 18.72869 26 ft 19 kts 320°
2026-05-07 07:07 42.40116 18.72742 26 ft 21 kts 319°
2026-05-07 07:07 42.40240 18.72595 26 ft 27 kts 319°
2026-05-07 07:07 42.40390 18.72423 26 ft 28 kts 321°
2026-05-07 07:08 42.40540 18.72246 26 ft 28 kts 317°
2026-05-07 07:08 42.40697 18.72057 26 ft 31 kts 319°
2026-05-07 07:08 42.40860 18.71866 26 ft 27 kts 319°
2026-05-07 07:08 42.40956 18.71799 26 ft 11 kts 33°
2026-05-07 07:09 42.41014 18.71856 26 ft 8 kts 352°
2026-05-07 07:09 42.41061 18.71813 26 ft 8 kts 318°
2026-05-07 07:09 42.41076 18.71799 26 ft 2 kts 340°
2026-05-07 07:09 42.41095 18.71813 26 ft 4 kts 59°
2026-05-07 07:10 42.41094 18.71842 26 ft 3 kts 139°
2026-05-07 07:10 42.41080 18.71848 26 ft 0 kts 176°